Location: Axtheid
(49.6213°N, 11.8205°E)
Time: 10:38:41
(UTC+00:00)

Envisat - Pass Details

Date: 09 October 2022
Orbit: 763 x 765 km, 98.2° (Epoch: 01 December)

Event Time Altitude Azimuth Distance (km) Brightness Sun altitude
Rises 01:54:24 0° 33° (NNE) 3,244 7.2 -33.3°
Reaches altitude 10° 01:59:00 10° 71° (ENE) 2,309 6.3 -32.7°
Maximum altitude 02:00:04 11° 84° (E) 2,265 6.1 -32.5°
Drops below altitude 10° 02:01:09 10° 96° (E) 2,305 6.0 -32.4°
Sets 02:05:42 0° 134° (SE) 3,222 6.4 -31.8°
